Lid_Strength_Index
4 4 4 4 4 3 3 3 3 3 3 3 3 3 2 2 3 2 3 0 -0 -1 -0 1 1 1 2 3 3 5 8 10 10 8 7 5 5 4 3 5 4 4 4 3 2
4 4 4 4 4 4 4 3 3 3 3 3 3 3 3 2 3 4 0 -2 -1 -1 2 2 3 2 4 4 4 6 11 9 7 6 6 5 5 5 5 5 5 5 3 2 2
4 4 4 4 4 4 4 4 4 4 4 4 3 3 3 3 5 4 -1 -1 -1 -1 2 3 2 3 5 4 4 6 10 6 5 5 5 6 5 4 5 6 5 6 4 3 3
5 5 5 4 4 5 4 4 4 4 4 4 4 3 2 3 9 2 -1 -1 -1 -0 2 3 4 5 5 6 4 7 5 5 5 4 5 6 4 5 5 5 3 3 3 3 3
5 5 5 5 5 5 4 4 4 4 4 4 4 3 3 5 5 1 -1 -1 -0 1 3 3 5 5 6 5 4 5 5 4 4 4 4 4 5 5 5 3 3 3 3 3 3
5 5 5 5 5 4 4 4 5 5 4 4 3 3 4 8 3 0 1 0 1 1 3 3 4 4 5 5 5 4 4 4 4 4 4 5 5 5 4 3 3 3 4 3 3
5 5 5 5 5 5 5 5 5 5 4 3 2 3 5 6 2 1 2 2 1 1 3 3 3 5 5 6 4 4 6 5 5 4 5 4 7 6 4 3 4 4 4 3 3
5 5 5 5 5 5 5 6 5 5 4 2 2 3 7 3 1 2 2 2 1 1 2 1 3 5 5 5 5 6 6 8 6 5 4 5 9 5 4 4 5 4 4 4 3
5 5 5 5 6 6 6 6 5 4 2 2 2 3 6 0 2 2 2 4 3 2 1 1 3 6 6 8 8 7 9 8 7 5 5 6 9 6 4 4 5 5 4 4 4
6 6 6 6 6 6 7 6 4 3 2 1 2 4 3 4 2 2 2 3 4 3 4 3 4 7 8 9 10 9 8 7 8 6 6 9 10 7 5 5 5 4 4 4 4
6 6 6 6 7 7 7 5 5 5 3 4 4 5 4 2 1 2 2 3 3 4 6 4 7 9 8 8 7 7 7 8 7 6 6 9 10 9 6 5 5 5 4 4 4
6 6 6 7 7 8 7 6 6 7 9 7 6 4 2 2 4 3 2 4 5 7 5 6 8 6 6 7 7 7 8 8 7 6 7 7 9 8 6 5 5 5 5 4 4
7 7 7 7 8 7 7 7 5 6 10 8 7 7 5 3 5 4 3 4 6 7 6 8 7 6 6 8 8 8 8 8 8 6 6 7 8 8 6 5 5 4 4 4 4
7 7 7 8 8 8 8 5 6 6 12 10 7 7 6 5 7 4 3 4 5 7 7 7 5 6 7 7 7 8 6 7 7 8 11 7 13 9 7 7 6 5 4 4 4
7 7 8 8 9 9 6 6 6 7 15 7 7 4 5 7 6 6 4 4 6 6 7 8 7 7 8 7 6 7 6 6 7 8 9 10 11 9 7 8 7 6 5 4 4
7 7 8 8 8 7 6 6 7 12 15 8 6 7 8 7 7 4 5 4 4 6 6 6 5 6 6 6 5 5 6 7 7 8 12 10 11 10 9 8 7 5 5 4 4
8 8 8 8 10 6 6 8 13 15 8 9 8 7 7 8 8 6 7 8 8 9 9 7 7 5 5 7 6 6 8 11 12 12 12 8 11 10 7 6 6 6 5 4 4
8 9 8 7 6 6 7 12 15 11 11 7 7 7 8 7 8 7 7 8 7 7 8 10 10 7 5 7 7 7 8 10 14 13 12 8 11 9 6 5 5 5 4 4 4
9 7 7 6 6 6 10 15 13 11 8 8 7 8 8 7 7 8 8 8 7 7 9 9 9 6 5 5 6 7 9 7 9 9 11 9 8 6 5 6 5 5 4 4 4
9 9 7 5 5 6 11 14 11 10 9 8 10 8 9 8 8 7 8 7 7 6 5 7 9 6 6 5 5 7 6 9 9 13 14 11 11 10 7 7 6 6 5 4 3
9 10 5 4 4 8 12 12 10 9 9 11 11 11 10 8 7 8 7 6 6 6 5 6 8 8 6 7 8 8 8 8 8 9 12 13 11 6 7 6 6 5 4 4 3
8 11 3 3 8 8 10 9 9 9 8 9 9 10 10 10 8 8 8 6 5 5 7 6 7 9 8 6 5 6 8 8 10 11 9 10 10 5 5 5 5 4 4 3 3
8 8 2 3 11 9 7 8 8 9 8 9 10 9 9 10 10 8 7 5 5 5 6 6 8 10 10 8 6 7 7 7 7 8 10 11 10 5 5 5 5 5 4 4 3
6 9 5 3 4 6 7 8 8 7 8 8 9 8 9 10 8 9 8 6 5 5 4 5 7 9 11 9 7 8 8 7 8 10 10 9 8 7 7 6 5 5 4 3 3
4 6 4 8 7 7 7 8 9 9 7 7 9 9 10 11 10 10 8 7 6 5 5 6 9 8 8 7 7 8 8 8 8 8 10 8 8 7 6 6 5 4 4 4 4
7 6 5 6 5 6 8 9 9 8 7 10 10 9 9 11 9 12 10 8 7 6 6 5 9 8 9 7 8 8 7 7 7 8 8 7 8 5 4 4 5 5 4 4 4
2 2 5 7 6 7 7 7 8 7 7 6 8 9 10 10 9 9 8 8 7 7 7 7 8 9 11 8 8 10 8 7 7 7 7 9 6 5 5 5 5 4 4 4 4